, AK

(GMT )
Northway

Weather History for PAOR - September, 2013

Change the Weather History Date:

Saturday, September 28, 2013

  Actual Average Record
Temperature  
Mean Temperature 36 °F -  
Max Temperature 43 °F 41 °F 59 °F (2015)
Min Temperature 30 °F 24 °F -32 °F (1971)
Degree Days  
Heating Degree Days 28    
Moisture  
Dew Point 33 °F    
Average Humidity 90    
Maximum Humidity 100    
Minimum Humidity 74    
Precipitation  
Precipitation 0.02 in - - ()
Sea Level Pressure  
Sea Level Pressure 29.22 in    
Wind  
Wind Speed 2 mph (NW)    
Max Wind Speed 9 mph    
Max Gust Speed -    
Visibility 10 miles    
Events Rain    
Averages and records for this station are not official NWS values.
T = Trace of Precipitation, MM = Missing Value Source: NWS Daily Summary

Daily Weather History Graph

Daily Weather History Graph

Search for Another Location

Airport or City:

Trip Planner

Search our weather history database for the weather conditions in past years. The results will help you decide how hot, cold, wet, or windy it might be!

Date:

Astronomy

Sep. 28, 2013 Rise Set
Actual Time 7:28 AM AKDT 7:06 PM AKDT
Civil Twilight 6:42 AM AKDT 7:51 PM AKDT
Nautical Twilight 5:48 AM AKDT 8:45 PM AKDT
Astronomical Twilight 4:49 AM AKDT 9:44 PM AKDT
Moon No Moon Rise 5:00 PM AKDT (9/28)
Length of Visible Light 13h 08m
Length of Day
11h 37m
Waning Crescent, 34% of the Moon is Illuminated
Sep 28
Waning Crescent
Oct 4
New
Oct 11
First Quarter
Oct 18
Full
Oct 26
Last Quarter

Hourly Weather History & Observations

Time (AKDT) Temp. Windchill Dew Point Humidity Pressure Visibility Wind Dir Wind Speed Gust Speed Precip Events Conditions
12:53 AM 33.1 °F - 30.9 °F 92% 29.25 in 10.0 mi Calm Calm - N/A   Overcast
1:53 AM 32.0 °F 28.7 °F 30.0 °F 92% 29.25 in 10.0 mi WSW 3.5 mph - N/A   Overcast
2:53 AM 30.9 °F - 30.0 °F 96% 29.24 in 10.0 mi Calm Calm - N/A   Mostly Cloudy
3:06 AM 32.0 °F - 30.2 °F 93% 29.17 in 10.0 mi Calm Calm - N/A   Mostly Cloudy
3:53 AM 33.1 °F 30.0 °F 32.0 °F 96% 29.23 in 10.0 mi NW 3.5 mph - N/A   Overcast
4:53 AM 35.1 °F - 32.0 °F 89% 29.23 in 10.0 mi Calm Calm - N/A   Overcast
5:53 AM 34.0 °F - 32.0 °F 92% 29.23 in 10.0 mi Calm Calm - N/A   Overcast
6:53 AM 33.1 °F 30.0 °F 32.0 °F 96% 29.24 in 10.0 mi East 3.5 mph - N/A   Overcast
7:04 AM 32.0 °F - 30.2 °F 93% 29.17 in 10.0 mi Calm Calm - N/A   Overcast
7:53 AM 30.9 °F - 30.0 °F 96% 29.24 in 10.0 mi Calm Calm - N/A   Overcast
8:17 AM 30.2 °F - 30.2 °F 100% 29.17 in 10.0 mi Calm Calm - N/A   Overcast
8:53 AM 32.0 °F - 30.9 °F 96% 29.24 in 10.0 mi Calm Calm - N/A   Overcast
9:53 AM 34.0 °F - 32.0 °F 92% 29.24 in 10.0 mi Calm Calm - N/A   Mostly Cloudy
10:09 AM 35.6 °F - 32.0 °F 87% 29.17 in 10.0 mi Calm Calm - N/A   Mostly Cloudy
10:53 AM 36.0 °F - 33.1 °F 89% 29.24 in 10.0 mi Calm Calm - N/A   Overcast
11:53 AM 39.0 °F - 34.0 °F 82% 29.23 in 10.0 mi Calm Calm - N/A   Mostly Cloudy
12:53 PM 42.1 °F 40.2 °F 35.1 °F 76% 29.21 in 10.0 mi NNW 3.5 mph - N/A   Mostly Cloudy
1:53 PM 43.0 °F 39.5 °F 35.1 °F 74% 29.20 in 10.0 mi NW 5.8 mph - N/A   Overcast
2:53 PM 42.1 °F 37.1 °F 35.1 °F 76% 29.20 in 10.0 mi NNW 8.1 mph - N/A   Overcast
3:53 PM 41.0 °F 35.2 °F 34.0 °F 76% 29.20 in 10.0 mi NNW 9.2 mph - N/A   Overcast
4:53 PM 39.0 °F 32.8 °F 35.1 °F 86% 29.20 in 10.0 mi NW 9.2 mph - 0.00 in   Overcast
5:53 PM 37.9 °F 32.1 °F 35.1 °F 89% 29.21 in 10.0 mi NW 8.1 mph - 0.01 in Rain Light Rain
6:53 PM 37.0 °F 31.6 °F 35.1 °F 93% 29.22 in 10.0 mi NW 6.9 mph - 0.00 in Rain Light Rain
7:53 PM 36.0 °F 30.3 °F 34.0 °F 93% 29.23 in 10.0 mi NW 6.9 mph - N/A   Overcast
8:53 PM 36.0 °F 30.3 °F 34.0 °F 93% 29.24 in 8.0 mi NW 6.9 mph - 0.00 in Rain Light Rain
9:53 PM 35.1 °F 30.1 °F 34.0 °F 96% 29.23 in 10.0 mi NW 5.8 mph - 0.00 in Rain Light Rain
10:33 PM 35.6 °F 29.2 °F 33.8 °F 93% 29.17 in 10.0 mi NW 8.1 mph - 0.01 in Rain Light Rain
10:53 PM 35.1 °F 29.3 °F 34.0 °F 96% 29.24 in 10.0 mi NW 6.9 mph - 0.01 in Rain Light Rain
11:53 PM 35.1 °F 28.6 °F 33.1 °F 92% 29.24 in 10.0 mi NW 8.1 mph - 0.00 in Rain Light Rain